Regional Weather Roundup
Issued by NWS

Home | Current Version | Previous Version | Graphics & Text | Print | Product List | Glossary On
Versions: 1 2 3 4 5 6 7 8 9 10 11 12 13 14 15 16 17 18 19 20 21 22 23 24 25 26 27 28 29 30 31 32 33 34 35 36 37 38 39 40 41 42 43 44 45 46 47 48 49 50
000
ASUS45 KBOI 280710
RWRID
WEATHER ROUNDUP FOR IDAHO
NATIONAL WEATHER SERVICE BOISE ID
100 AM MDT MON JUL 28 2014

NOTE: "FAIR" INDICATES FEW OR NO CLOUDS BELOW 12000 FEET
WITH NO SIGNIFICANT WEATHER AND/OR OBSTRUCTIONS TO VISIBILITY

IDZ012-014-280800-
SOUTHWEST IDAHO


CITY           SKY/WX    TMP DP  RH WIND       PRES   REMARKS
BOISE          MOCLDY    80  45  28 S5        30.00R
CALDWELL       MOCLDY    77  50  38 NW7       30.00R
MOUNTAIN HOME  CLOUDY    82  40  21 W12       30.01S
$$

IDZ016-017-280800-
SOUTHCENTRAL IDAHO


CITY           SKY/WX    TMP DP  RH WIND       PRES   REMARKS
BURLEY         MOCLDY    68  50  52 CALM      30.09F
JEROME         CLOUDY    78  46  32 E8        30.10R
TWIN FALLS     CLOUDY    77  39  25 S7        30.10S
$$

IDZ019>023-280800-
SOUTHEAST IDAHO


CITY           SKY/WX    TMP DP  RH WIND       PRES   REMARKS
IDAHO FALLS    CLEAR     55  46  71 N3        30.19R
POCATELLO      CLEAR     72  33  24 E5        30.14S
REXBURG        CLEAR     58  44  60 NE3       30.22R
$$

IDZ006-010-011-018-031-032-280800-
CENTRAL IDAHO MOUNTAINS


CITY           SKY/WX    TMP DP  RH WIND       PRES   REMARKS
MCCALL         PTCLDY    69  39  33 CALM      30.21S
HAILEY         CLOUDY    82  36  18 NE8       30.23F
STANLEY          N/A     61  31  32 CALM      30.33S
SALMON         NOT AVBL
CHALLIS        PTCLDY    67  32  27 CALM      30.21R
$$

IDZ002-004-006-007-026-280800-
NORTHERN IDAHO


CITY           SKY/WX    TMP DP  RH WIND       PRES   REMARKS
LEWISTON       MOCLDY    81  40  23 SW3       30.01R
LOWELL           N/A     64  54  69 N6        30.07R
COEUR D`ALENE  MOCLDY    63  46  55 CALM      30.09S
MULLAN PASS    CLOUDY    67  33  28 SE6       30.33S
$$



USA.gov is the U.S. government's official web portal to all federal, state and local government web resources and services.